User: anonymous   Login
Location: Clinton NY
(43.0598°N, 75.3602°W)
Time: 22:53:36
(UTC-04:00)
Language:

Iridium 42 - Orbit

View from above orbital plane
View from above orbital plane
View from above satellite
View from above satellite

Ground track
Ground track

The orbit data is extracted from the following two-line orbital elements,

1 25077U 97077A   16209.41482887  .00000093  00000-0  26132-4 0  9991
2 25077  86.4004 157.7178 0002118  87.4262 272.7176 14.34492858975632
Epoch (UTC): 27 July 2016 09:57:21
Eccentricity: 0.0002118
inclination: 86.4004°
perigee height: 775 km
apogee height: 778 km
right ascension of ascending node: 157.7178°
argument of perigee: 87.4262°
revolutions per day: 14.34492858
mean anomaly at epoch: 272.7176°
orbit number at epoch: 97563

The dashed part of the orbit path shows where the satellite is in the earth's shadow,  

DLR